Time,TemperatureF,DewpointF,PressureIn,WindDirection,WindDirectionDegrees,WindSpeedMPH,WindSpeedGustMPH,Humidity,HourlyPrecipIn,Conditions,Clouds,dailyrainin,SoftwareType,DateUTC
2013-02-22 12:29:00,34.9,32.5,29.74,ENE,70,4.9,4.9,91,0.00,,,0.00,VWS V12.08,2013-02-22 11:29:00,
2013-02-22 12:30:00,34.9,32.5,29.74,NE,42,3.1,4.9,91,0.00,,,0.00,VWS V12.08,2013-02-22 11:30:00,
2013-02-22 12:35:00,34.9,32.5,29.74,ENE,76,3.1,7.6,91,0.00,,,0.00,VWS V12.08,2013-02-22 11:35:00,
2013-02-22 12:40:00,35.1,32.7,29.74,ENE,78,2.7,9.6,91,0.00,,,0.00,VWS V12.08,2013-02-22 11:40:00,
2013-02-22 12:45:00,35.1,32.7,29.74,ENE,68,6.3,10.5,91,0.00,,,0.00,VWS V12.08,2013-02-22 11:45:00,
2013-02-22 12:50:00,35.1,32.7,29.74,East,98,5.4,10.5,91,0.00,,,0.00,VWS V12.08,2013-02-22 11:50:00,
2013-02-22 12:55:00,35.1,32.7,29.74,ENE,75,10.1,10.5,91,0.00,,,0.00,VWS V12.08,2013-02-22 11:55:00,
2013-02-22 13:00:00,35.1,32.7,29.74,ENE,76,7.6,10.5,91,0.00,,,0.00,VWS V12.08,2013-02-22 12:00:00,
2013-02-22 13:05:00,35.4,33.3,29.71,East,87,6.3,8.7,92,0.00,,,0.00,VWS V12.08,2013-02-22 12:05:00,
2013-02-22 13:10:00,35.4,33.3,29.71,ENE,77,7.6,8.7,92,0.00,,,0.00,VWS V12.08,2013-02-22 12:10:00,
2013-02-22 13:15:00,35.4,33.3,29.71,East,85,6.7,8.7,92,0.00,,,0.00,VWS V12.08,2013-02-22 12:15:00,
2013-02-22 13:20:00,35.4,33.3,29.71,ENE,67,6.7,11.0,92,0.00,,,0.00,VWS V12.08,2013-02-22 12:20:00,
2013-02-22 13:25:00,35.4,33.3,29.71,ENE,76,3.1,10.5,92,0.00,,,0.00,VWS V12.08,2013-02-22 12:25:00,
2013-02-22 13:30:00,35.4,33.3,29.71,ESE,104,5.8,10.5,92,0.00,,,0.00,VWS V12.08,2013-02-22 12:30:00,
2013-02-22 13:35:00,35.4,33.3,29.71,East,81,5.4,8.1,92,0.00,,,0.00,VWS V12.08,2013-02-22 12:35:00,
2013-02-22 13:40:00,35.2,33.2,29.71,ENE,71,3.1,8.3,92,0.00,,,0.00,VWS V12.08,2013-02-22 12:40:00,
2013-02-22 13:45:00,35.1,33.0,29.71,East,91,3.1,8.3,92,0.00,,,0.00,VWS V12.08,2013-02-22 12:45:00,
2013-02-22 13:50:00,35.1,33.0,29.71,NNE,20,6.3,8.3,92,0.00,,,0.00,VWS V12.08,2013-02-22 12:50:00,
2013-02-22 13:55:00,35.2,33.2,29.71,ENE,69,3.1,8.1,92,0.00,,,0.00,VWS V12.08,2013-02-22 12:55:00,
2013-02-22 14:00:00,35.2,33.2,29.71,ENE,67,3.6,8.1,92,0.00,,,0.00,VWS V12.08,2013-02-22 13:00:00,
2013-02-22 14:05:00,35.1,33.0,29.71,East,89,3.6,7.2,92,0.00,,,0.00,VWS V12.08,2013-02-22 13:05:00,
2013-02-22 14:10:00,35.1,33.0,29.71,NE,44,3.6,7.2,92,0.00,,,0.00,VWS V12.08,2013-02-22 13:10:00,
2013-02-22 14:15:00,35.1,33.0,29.71,NE,53,3.1,7.6,92,0.00,,,0.00,VWS V12.08,2013-02-22 13:15:00,
2013-02-22 14:20:00,35.1,33.0,29.71,ENE,64,6.3,7.6,92,0.00,,,0.00,VWS V12.08,2013-02-22 13:20:00,
2013-02-22 14:25:00,35.1,33.0,29.71,East,83,4.0,7.6,92,0.00,,,0.00,VWS V12.08,2013-02-22 13:25:00,
2013-02-22 14:30:00,35.1,33.0,29.71,NE,38,4.0,7.6,92,0.00,,,0.00,VWS V12.08,2013-02-22 13:30:00,
2013-02-22 14:35:00,35.2,33.2,29.71,ENE,78,4.0,7.6,92,0.00,,,0.00,VWS V12.08,2013-02-22 13:35:00,
2013-02-22 14:40:00,35.2,33.2,29.71,NE,46,4.9,7.6,92,0.00,,,0.00,VWS V12.08,2013-02-22 13:40:00,
2013-02-22 14:45:00,35.2,33.2,29.71,East,82,4.0,6.3,92,0.00,,,0.00,VWS V12.08,2013-02-22 13:45:00,
2013-02-22 14:50:00,35.2,33.2,29.71,ESE,115,3.6,6.3,92,0.00,,,0.00,VWS V12.08,2013-02-22 13:50:00,
2013-02-22 14:55:00,35.2,33.2,29.71,ENE,57,0.0,6.7,92,0.00,,,0.00,VWS V12.08,2013-02-22 13:55:00,
2013-02-22 15:00:00,35.2,33.2,29.71,East,101,2.7,6.7,92,0.00,,,0.00,VWS V12.08,2013-02-22 14:00:00,
2013-02-22 15:05:00,35.2,33.2,29.71,NE,56,4.9,6.3,92,0.00,,,0.00,VWS V12.08,2013-02-22 14:05:00,
2013-02-22 15:10:00,35.2,33.2,29.71,East,83,2.7,6.3,92,0.00,,,0.00,VWS V12.08,2013-02-22 14:10:00,
2013-02-22 15:15:00,35.2,33.2,29.71,North,10,3.1,6.3,92,0.00,,,0.00,VWS V12.08,2013-02-22 14:15:00,
2013-02-22 15:20:00,35.2,33.2,29.71,East,84,5.4,7.2,92,0.00,,,0.00,VWS V12.08,2013-02-22 14:20:00,
2013-02-22 15:25:00,35.2,33.2,29.71,East,82,4.0,6.3,92,0.00,,,0.00,VWS V12.08,2013-02-22 14:25:00,
2013-02-22 15:30:00,35.2,33.2,29.71,ENE,70,5.4,5.4,92,0.00,,,0.00,VWS V12.08,2013-02-22 14:30:00,
2013-02-22 15:35:00,35.2,33.2,29.71,East,91,3.1,6.3,92,0.00,,,0.00,VWS V12.08,2013-02-22 14:35:00,
2013-02-22 15:40:00,35.2,33.2,29.71,East,95,2.7,7.6,92,0.00,,,0.00,VWS V12.08,2013-02-22 14:40:00,
2013-02-22 15:45:00,35.2,33.2,29.71,ESE,105,5.8,7.6,92,0.00,,,0.00,VWS V12.08,2013-02-22 14:45:00,
2013-02-22 15:50:00,35.2,33.4,29.71,ENE,59,4.9,7.6,93,0.00,,,0.00,VWS V12.08,2013-02-22 14:50:00,
2013-02-22 15:55:00,35.2,33.4,29.71,NNE,17,4.0,6.3,93,0.00,,,0.00,VWS V12.08,2013-02-22 14:55:00,
2013-02-22 16:00:00,35.2,33.4,29.71,ENE,58,4.0,7.2,93,0.00,,,0.00,VWS V12.08,2013-02-22 15:00:00,
2013-02-22 16:05:00,35.2,33.4,29.71,North,0,5.4,5.8,93,0.00,,,0.00,VWS V12.08,2013-02-22 15:05:00,
2013-02-22 16:10:00,35.2,33.4,29.71,NE,44,4.9,4.9,93,0.00,,,0.00,VWS V12.08,2013-02-22 15:10:00,
2013-02-22 16:15:00,35.2,33.4,29.71,NE,48,5.4,6.3,93,0.00,,,0.00,VWS V12.08,2013-02-22 15:15:00,
2013-02-22 16:20:00,35.2,33.4,29.71,ENE,78,3.1,3.1,93,0.00,,,0.00,VWS V12.08,2013-02-22 15:20:00,
2013-02-22 16:25:00,35.2,33.4,29.71,ENE,75,3.6,6.3,93,0.00,,,0.00,VWS V12.08,2013-02-22 15:25:00,
2013-02-22 16:30:00,35.2,33.4,29.71,ENE,64,5.4,5.4,93,0.00,,,0.00,VWS V12.08,2013-02-22 15:30:00,
2013-02-22 16:35:00,35.2,33.4,29.71,NE,39,5.4,9.6,93,0.00,,,0.00,VWS V12.08,2013-02-22 15:35:00,
2013-02-22 16:40:00,35.2,33.4,29.71,ENE,78,5.8,5.8,93,0.00,,,0.00,VWS V12.08,2013-02-22 15:40:00,
2013-02-22 16:45:00,35.2,33.4,29.71,NE,38,5.8,7.6,93,0.00,,,0.00,VWS V12.08,2013-02-22 15:45:00,
2013-02-22 16:50:00,35.2,33.4,29.71,ENE,78,4.9,4.9,93,0.00,,,0.00,VWS V12.08,2013-02-22 15:50:00,
2013-02-22 16:55:00,35.2,33.4,29.71,ESE,105,5.8,6.3,93,0.00,,,0.00,VWS V12.08,2013-02-22 15:55:00,
2013-02-22 17:00:00,35.2,33.4,29.71,East,90,6.7,6.7,93,0.00,,,0.00,VWS V12.08,2013-02-22 16:00:00,
2013-02-22 17:05:00,35.2,33.4,29.71,East,81,5.4,6.7,93,0.00,,,0.00,VWS V12.08,2013-02-22 16:05:00,
2013-02-22 17:10:00,35.2,33.4,29.71,East,79,2.7,3.6,93,0.00,,,0.00,VWS V12.08,2013-02-22 16:10:00,
2013-02-22 17:15:00,35.2,33.4,29.71,East,84,5.8,6.3,93,0.00,,,0.00,VWS V12.08,2013-02-22 16:15:00,
2013-02-22 17:20:00,35.2,33.4,29.71,ENE,58,6.3,6.3,93,0.00,,,0.00,VWS V12.08,2013-02-22 16:20:00,
2013-02-22 17:25:00,35.2,33.4,29.71,NE,52,4.9,7.6,93,0.00,,,0.00,VWS V12.08,2013-02-22 16:25:00,
2013-02-22 17:30:00,35.2,33.4,29.71,East,80,5.4,5.4,93,0.00,,,0.00,VWS V12.08,2013-02-22 16:30:00,
2013-02-22 17:35:00,35.2,33.4,29.71,East,82,5.8,7.6,93,0.00,,,0.00,VWS V12.08,2013-02-22 16:35:00,